This is the latest recevied weather packets stored in our database for station/object N6SPP. If no packets are shown the sender has not sent any weather packets the latest 10 day(s).
| Time | Temp. | Humidity | Pressure | Rain* | Wind** | Luminosity | Snow |
|---|---|---|---|---|---|---|---|
| 1777830412 | 16.67° C | 66% | 1015 hPa | 0 mm | - | 696 W/m² | - |
| 1777830110 | 16.67° C | 68% | 1015.1 hPa | 0 mm | - | 428 W/m² | - |
| 1777829805 | 16.11° C | 67% | 1015 hPa | 0 mm | - | 540 W/m² | - |
| 1777829501 | 16.11° C | 69% | 1014.9 hPa | 0 mm | - | 269 W/m² | - |
| 1777829199 | 16.67° C | 68% | 1015 hPa | 0 mm | - | 294 W/m² | - |
| 1777828896 | 16.11° C | 69% | 1014.9 hPa | 0 mm | - | 376 W/m² | - |
| 1777828592 | 16.11° C | 68% | 1014.7 hPa | 0 mm | - | 374 W/m² | - |
| 1777828290 | 16.11° C | 68% | 1014.9 hPa | 0 mm | - | 588 W/m² | - |
| 1777827987 | 16.11° C | 69% | 1014.8 hPa | 0 mm | - | 600 W/m² | - |
| 1777827683 | 15.56° C | 69% | 1014.7 hPa | 0 mm | - | 466 W/m² | - |
| 1777827380 | 16.11° C | 69% | 1014.8 hPa | 0 mm | - | 449 W/m² | - |
| 1777827076 | 16.11° C | 68% | 1014.6 hPa | 0 mm | - | 549 W/m² | - |
| 1777826773 | 16.11° C | 68% | 1014.5 hPa | 0 mm | - | 453 W/m² | - |
| 1777826470 | 15.56° C | 69% | 1014.5 hPa | 0 mm | - | 350 W/m² | - |
| 1777826167 | 15.56° C | 69% | 1014.6 hPa | 0 mm | - | 365 W/m² | - |
| 1777825864 | 15.56° C | 69% | 1014.3 hPa | 0 mm | - | 371 W/m² | - |
| 1777825561 | 15.56° C | 70% | 1014.4 hPa | 0 mm | - | 383 W/m² | - |
| 1777825260 | 15° C | 70% | 1014.2 hPa | 0 mm | - | 331 W/m² | - |
| 1777824956 | 15° C | 71% | 1014.2 hPa | 0 mm | - | 294 W/m² | - |
| 1777824652 | 15° C | 71% | 1014.1 hPa | 0 mm | - | 390 W/m² | - |
| 1777824350 | 14.44° C | 72% | 1014 hPa | 0 mm | - | 294 W/m² | - |
| 1777824045 | 14.44° C | 72% | 1014 hPa | 0 mm | - | 269 W/m² | - |
| 1777823741 | 14.44° C | 72% | 1014.2 hPa | 0 mm | - | 255 W/m² | - |
| 1777823439 | 13.89° C | 73% | 1014.2 hPa | 0 mm | - | 248 W/m² | - |
| 1777823136 | 13.89° C | 73% | 1014 hPa | 0 mm | - | 210 W/m² | - |
* Rain latest hour (hover to see other rain measurements)
** Current wind speed in m/s (hover to see current wind gust speed)